パンスターズ彗星

C/2014 G1 ( PanSTARRS )

English version
Home page
Updated on June 11, 2016

---------------------------------------------------------------------

・ プロフィール

発見日 2014年4月5日
発見光度 20.5等
発見者 Pan-STARRS 1 telescope (Haleakala)

・ 写真集

・ 軌道要素

Epoch 2013 Nov. 4.0 TT = JDT 2456600.5
T 2013 Nov. 6.81413 TT                                  MPC
q   5.4686491            (2000.0)            P               Q
z  +0.0009672      Peri.   77.06013     -0.14741004     -0.98467176
 +/-0.0000396      Node   337.91961     -0.97609201     +0.12960462
e   0.9947107      Incl.  165.64004     -0.15973313     +0.11672260
From 70 observations 2014 Mar. 30-June 29, mean residual 0".5.

・ 光度変化

        m1 = 8.5 + 5 logΔ + 10.0 log r

---------------------------------------------------------------------

軌道要素はM.P.E.C. 2014-S34に掲載されたものです。
光度グラフはComet for Windowsで作成したものです。

---------------------------------------------------------------------

Copyright(C) Seiichi Yoshida (comet@aerith.net). All rights reserved.